Starlink 3976

operational
NORAD ID: 52673 Int'l Des: 2022-053 Owner: SPXS Country: US Constellation: starlink
LEOCIRCULAR

Starlink 3976について

説明を読み込み中...

リアルタイム位置

3D地球を読み込み中...

次回通過

高度履歴

Altitude vs Time

uPlot chart will show altitude changes over time

軌道要素

1 52673U 22053T 25350.76971018 .00000772 00000-0 66624-4 0 9993
2 52673 53.2161 166.3628 0001396 87.9444 272.1708 15.08819122198529
Epoch: Dec 16, 2025 • Age: 11 hours

現在のステータス

高度 547.7 km
速度 7.59 km/s
衛星直下点 -25.22°S, 24.2°W
打ち上げ日 May 18, 2022
運用期間 3.5 years
タイプ internet

技術仕様

分類 Payload
質量 297.00 kg
乾燥質量 275.00 kg
総質量 297.00 kg
長さ 0.20 m
直径 2.80 m
スパン 9.00 m
形状 Box + pan
製造者 SPXS
バスタイプ Starlink
フェーズステータス In Orbit
所有者/国 SPXS/US

大規模コンステレーション

Loading constellations...